Weather History for Marion, IN

Change the Weather History Date:

Thursday, November 14, 2013

  Actual Average (KMIE) Record (KMIE)
Temperature  
Mean Temperature 39 °F 44 °F  
Max Temperature 78 °F 52 °F 71 °F (1989)
Min Temperature 27 °F 35 °F 11 °F (1986)
Degree Days  
Heating Degree Days 26 22  
Month to date heating degree days 264  
Since 1 July heating degree days 728  
Cooling Degree Days 0 0  
Month to date cooling degree days 0  
Year to date cooling degree days 955  
Moisture  
Dew Point 19 °F    
Average Humidity 50    
Maximum Humidity 73    
Minimum Humidity 24    
Precipitation  
Precipitation 0.00 in 0.12 in 2.69 in (1993)
Month to date precipitation 1.53  
Year to date precipitation 35.32  
Sea Level Pressure  
Sea Level Pressure 30.18 in    
Wind  
Wind Speed 13 mph (SW)    
Max Wind Speed 21 mph    
Max Gust Speed 25 mph    
Visibility 10 miles    
Events      
T = Trace of Precipitation, MM = Missing Value Source: NWS Daily Summary

Daily Weather History Graph

Daily Weather History Graph

Search for Another Location

Airport:

Trip Planner

Search our weather history database for the weather conditions in past years. The results will help you decide how hot, cold, wet, or windy it might be!

Date:

Astronomy

Nov. 14, 2013 Rise Set
Actual Time 7:28 AM EST 5:25 PM EST
Civil Twilight 6:58 AM EST 5:55 PM EST
Nautical Twilight 6:25 AM EST 6:27 PM EST
Astronomical Twilight 5:53 AM EST 7:00 PM EST
Moon 3:47 PM EST (11/14) 4:22 AM EST (11/14)
Length of Visible Light 10h 56m
Length of Day
9h 57m
Waxing Gibbous, 91% of the Moon is Illuminated
Nov 14
Waxing Gibbous
Nov 17
Full
Nov 25
Last Quarter
Dec 2
New
Dec 9
First Quarter

Hourly Weather History & Observations

Time (EST) Temp. Windchill Dew Point Humidity Pressure Visibility Wind Dir Wind Speed Gust Speed Precip Events Conditions
12:15 AM 29.3 °F 19.6 °F 19.0 °F 66% 30.31 in 10.0 mi SSW 11.5 mph - N/A   Clear
12:35 AM 29.3 °F 19.6 °F 19.2 °F 66% 30.30 in 10.0 mi SSW 11.5 mph - N/A   Clear
12:55 AM 29.3 °F 20.8 °F 19.4 °F 67% 30.29 in 10.0 mi SSW 9.2 mph - N/A   Clear
1:15 AM 29.3 °F 20.2 °F 19.8 °F 68% 30.29 in 10.0 mi SSW 10.4 mph - N/A   Clear
1:35 AM 29.3 °F 19.6 °F 19.9 °F 68% 30.28 in 10.0 mi SW 11.5 mph - N/A   Clear
1:55 AM 30.0 °F 19.5 °F 19.9 °F 66% 30.28 in 10.0 mi SW 13.8 mph 20.7 mph N/A   Clear
2:15 AM 30.2 °F 19.8 °F 19.9 °F 66% 30.28 in 10.0 mi SW 13.8 mph - N/A   Clear
2:35 AM 30.4 °F 20.0 °F 19.9 °F 65% 30.28 in 10.0 mi SW 13.8 mph - N/A   Clear
2:55 AM 30.6 °F 20.7 °F 19.8 °F 64% 30.28 in 10.0 mi SW 12.7 mph - N/A   Clear
3:15 AM 30.2 °F 20.8 °F 19.8 °F 65% 30.27 in 10.0 mi SW 11.5 mph - N/A   Clear
3:35 AM 29.7 °F 20.1 °F 19.9 °F 67% 30.27 in 10.0 mi SSW 11.5 mph - N/A   Clear
3:55 AM 29.3 °F 19.6 °F 19.9 °F 68% 30.26 in 10.0 mi SSW 11.5 mph - N/A   Clear
4:15 AM 30.0 °F 20.5 °F 20.1 °F 67% 30.26 in 10.0 mi SW 11.5 mph - N/A   Clear
4:35 AM 30.2 °F 20.8 °F 20.1 °F 66% 30.26 in 10.0 mi SW 11.5 mph - N/A   Clear
4:55 AM 30.0 °F 21.7 °F 20.1 °F 67% 30.26 in 10.0 mi SW 9.2 mph - N/A   Clear
5:15 AM 29.3 °F 21.5 °F 20.3 °F 69% 30.27 in 10.0 mi SW 8.1 mph - N/A   Clear
5:35 AM 28.6 °F 19.9 °F 20.1 °F 71% 30.26 in 10.0 mi SW 9.2 mph - N/A   Clear
5:55 AM 27.9 °F 19.1 °F 20.1 °F 73% 30.26 in 10.0 mi SSW 9.2 mph - N/A   Clear
6:15 AM 27.7 °F 19.6 °F 20.1 °F 73% 30.25 in 10.0 mi SSW 8.1 mph - N/A   Clear
6:35 AM 27.9 °F 18.4 °F 20.1 °F 73% 30.25 in 10.0 mi SSW 10.4 mph - N/A   Clear
6:55 AM 28.0 °F 18.6 °F 20.1 °F 72% 30.24 in 10.0 mi SSW 10.4 mph - N/A   Clear
7:15 AM 28.2 °F 18.3 °F 20.3 °F 72% 30.24 in 10.0 mi SSW 11.5 mph - N/A   Clear
7:35 AM 28.2 °F 18.3 °F 20.1 °F 72% 30.24 in 10.0 mi SSW 11.5 mph - N/A   Clear
7:55 AM 28.4 °F 18.0 °F 20.3 °F 72% 30.23 in 10.0 mi SSW 12.7 mph - N/A   Clear
8:15 AM 29.5 °F 18.8 °F 20.5 °F 69% 30.23 in 10.0 mi SSW 13.8 mph - N/A   Clear
8:35 AM 31.1 °F 20.9 °F 20.8 °F 66% 30.24 in 10.0 mi SSW 13.8 mph - N/A   Clear
8:55 AM 32.2 °F 21.4 °F 21.2 °F 64% 30.23 in 10.0 mi SSW 16.1 mph 20.7 mph N/A   Clear
9:15 AM 33.6 °F 22.9 °F 21.2 °F 60% 30.23 in 10.0 mi SSW 17.3 mph 23.0 mph N/A   Clear
9:35 AM 35.4 °F 25.3 °F 20.8 °F 55% 30.22 in 10.0 mi SW 17.3 mph 23.0 mph N/A   Clear
9:55 AM 36.9 °F 27.1 °F 20.5 °F 52% 30.22 in 10.0 mi SW 17.3 mph - N/A   Clear
10:15 AM 38.1 °F 28.4 °F 20.3 °F 49% 30.22 in 10.0 mi SW 18.4 mph 23.0 mph N/A   Clear
10:35 AM 39.6 °F 30.6 °F 20.1 °F 46% 30.22 in 10.0 mi SW 17.3 mph 23.0 mph N/A   Clear
10:55 AM 40.6 °F 32.0 °F 20.5 °F 45% 30.21 in 10.0 mi SW 17.3 mph 21.9 mph N/A   Clear
11:15 AM 41.9 °F 33.7 °F 20.1 °F 42% 30.21 in 10.0 mi SW 17.3 mph 21.9 mph N/A   Clear
11:35 AM 43.3 °F 35.8 °F 19.8 °F 39% 30.20 in 10.0 mi SW 16.1 mph - N/A   Clear
11:55 AM 45.0 °F 37.4 °F 18.9 °F 35% 30.19 in 10.0 mi SW 18.4 mph 21.9 mph N/A   Clear
12:15 PM 46.2 °F 39.3 °F 18.1 °F 33% 30.18 in 10.0 mi SW 17.3 mph 21.9 mph N/A   Clear
12:35 PM 46.9 °F - 17.8 °F 31% 30.17 in 10.0 mi SW 18.4 mph 25.3 mph N/A   Clear
12:55 PM 48.0 °F - 17.6 °F 30% 30.16 in 10.0 mi SW 16.1 mph - N/A   Clear
1:15 PM 48.9 °F - 17.4 °F 29% 30.15 in 10.0 mi SW 19.6 mph 24.2 mph N/A   Clear
1:35 PM 49.5 °F - 17.1 °F 28% 30.14 in 10.0 mi SW 20.7 mph 25.3 mph N/A   Clear
1:55 PM 50.2 °F - 17.1 °F 27% 30.13 in 10.0 mi SW 19.6 mph 25.3 mph N/A   Clear
2:15 PM 50.7 °F - 16.2 °F 25% 30.12 in 10.0 mi SW 18.4 mph 23.0 mph N/A   Clear
2:35 PM 50.9 °F - 15.6 °F 25% 30.11 in 10.0 mi SSW 20.7 mph 24.2 mph N/A   Clear
2:55 PM 51.1 °F - 15.1 °F 24% 30.11 in 10.0 mi SW 17.3 mph 25.3 mph N/A   Clear
3:15 PM 51.4 °F - 15.3 °F 24% 30.10 in 10.0 mi SSW 16.1 mph - N/A   Clear
3:35 PM 51.4 °F - 16.9 °F 25% 30.10 in 10.0 mi SSW 16.1 mph - N/A   Clear
3:55 PM 50.7 °F - 16.5 °F 26% 30.10 in 10.0 mi SSW 13.8 mph - N/A   Clear
4:15 PM 49.6 °F - 18.3 °F 29% 30.09 in 10.0 mi SSW 13.8 mph - N/A   Clear
4:35 PM 48.7 °F - 19.0 °F 31% 30.09 in 10.0 mi SSW 11.5 mph 16.1 mph N/A   Clear
4:55 PM 47.3 °F - 18.7 °F 32% 30.08 in 10.0 mi SSW 10.4 mph - N/A   Clear
5:15 PM 45.9 °F 40.8 °F 18.7 °F 34% 30.08 in 7.0 mi SSW 10.4 mph - N/A   Clear
5:35 PM 44.1 °F 38.1 °F 19.4 °F 37% 30.08 in 7.0 mi SSW 11.5 mph - N/A   Clear
5:55 PM 43.3 °F 37.2 °F 19.6 °F 39% 30.08 in 10.0 mi SSW 11.5 mph - N/A   Clear
6:15 PM 43.5 °F 37.1 °F 19.9 °F 39% 30.08 in 10.0 mi SSW 12.7 mph - N/A   Clear
6:35 PM 43.5 °F 37.9 °F 19.0 °F 38% 30.09 in 10.0 mi SSW 10.4 mph - N/A   Clear
6:55 PM 42.6 °F 37.2 °F 19.4 °F 39% 30.09 in 10.0 mi SW 9.2 mph - N/A   Clear
7:15 PM 40.5 °F 34.6 °F 20.3 °F 45% 30.10 in 10.0 mi SSW 9.2 mph - N/A   Clear
7:35 PM 39.2 °F 33.0 °F 20.8 °F 48% 30.09 in 10.0 mi SSW 9.2 mph - N/A   Clear
7:55 PM 39.6 °F 32.1 °F 21.0 °F 48% 30.08 in 10.0 mi South 12.7 mph - N/A   Clear
8:15 PM 40.6 °F 33.0 °F 20.7 °F 45% 30.08 in 10.0 mi SSW 13.8 mph - N/A   Clear
8:35 PM 41.4 °F 34.7 °F 20.3 °F 43% 30.08 in 10.0 mi SW 11.5 mph - N/A   Clear
8:55 PM 40.8 °F 33.7 °F 20.5 °F 44% 30.08 in 10.0 mi SSW 12.7 mph - N/A   Clear
9:15 PM 41.0 °F 33.5 °F 20.3 °F 44% 30.08 in 7.0 mi SSW 13.8 mph 18.4 mph N/A   Clear
9:35 PM 40.6 °F 33.0 °F 20.3 °F 44% 30.09 in 10.0 mi SSW 13.8 mph - N/A   Clear
9:55 PM 40.5 °F 31.8 °F 20.1 °F 44% 30.08 in 10.0 mi SSW 17.3 mph - N/A   Clear
10:15 PM 40.5 °F 32.1 °F 19.9 °F 44% 30.08 in 10.0 mi SSW 16.1 mph - N/A   Clear
10:35 PM 40.1 °F 31.6 °F 20.1 °F 45% 30.07 in 10.0 mi SSW 16.1 mph - N/A   Clear
10:55 PM 39.9 °F 31.8 °F 20.1 °F 45% 30.08 in 10.0 mi SSW 15.0 mph - N/A   Clear
11:15 PM 39.4 °F 32.7 °F 20.5 °F 47% 30.08 in 7.0 mi SW 10.4 mph - N/A   Clear
11:35 PM 38.3 °F 32.5 °F 21.0 °F 50% 30.09 in 7.0 mi SW 8.1 mph - N/A   Clear
11:55 PM 38.1 °F 31.7 °F 21.2 °F 51% 30.09 in 10.0 mi SSW 9.2 mph - N/A   Clear